Location: Maiden
(35.5760°N, 81.2120°W)
Time: 03:18:40
(UTC-04:00)

IRIDIUM 103 - Pass Details

Date: 02 August 2020
Orbit: 776 x 779 km, 86.4° (Epoch: 11 August)

Event Time Altitude Azimuth Distance (km) Brightness Sun altitude
Exits shadow 22:25:37 28° 186° (S) 1,426 5.4 -21.2°
Maximum altitude 22:28:27 82° 271° (W) 790 4.3 -21.6°
Drops below altitude 10° 22:33:41 10° 0° (N) 2,333 7.4 -22.4°
Sets 22:36:02 0° 1° (N) 3,264 8.2 -22.7°
